Погода в Нижнетамбовском

Россия / Хабаровский край     50°55′15″N   138°11′18″E
темп.,
°C
ветер,
м/с
пор.,
м/с
влажн.,
%
обл.,
%
осадки,
мм/ч
давл.,
гПа
погр.,
м
20 апреля, вт
вт2001:00−1юз1398100 0.0 99473
04:00−1ююз2497100 0.1 994264
07:00−1юз3589100 0.7 994467
10:00+1зюз2376100 1.4 996751
13:00+3зсз3575100 0.3 9981059
16:00+4сз696259 0.6 10011527
19:00+2з367611 0.1 1004202
22:00−4зсз119664 0.1 100612
21 апреля, ср
ср2101:00−3зсз119470 0.0 100920
04:00−5зсз01965 0.0 101213
07:00−2ю01845 0.0 101595
10:00+5юз12553 0.0 1016792
13:00+10сз13425 0.0 10161567
16:00+10с24455 0.0 10171534
19:00+6ссв22711 0.0 101915
22:000ссв249024 0.0 102265
22 апреля, чт
чт2201:00−1ссв239026 0.0 102448
04:00−1св238787 0.0 102567
07:000св12785 0.0 102595
10:00+8в114810 0.0 1023423
13:00+13ююз24345 0.0 1022835
16:00+15ю36370 0.0 1019983
19:00+11ююв22666 0.0 101923
22:00+6ююз117822 0.0 101921
23 апреля, пт
пт2301:00+6юз11776 0.0 101917
04:00+5зюз1176100 0.0 101814
07:00+7зюз227350 0.0 101856
10:00+14юз4649100 0.0 1017577
13:00+17зюз464599 0.0 10171252
16:00+8ссв5784100 0.6 1018439
19:00+1св51196100 6.8 1021605
22:000св41396100 9.4 1021718
24 апреля, сб
сб2401:000св41195100 2.7 1021700
04:00−2св2593100 3.4 1021398
07:00−3ссв119117 0.0 1020102
10:00+3юз12635 0.0 1018894
13:00+5зсз365299 0.1 10162059
16:00+5ссз136099 0.8 10131048
19:00+3з0075100 0.8 101213
22:00−3ссв23927 1.1 101351